TimeCDT,TemperatureF,Dew PointF,Humidity,Sea Level PressureIn,VisibilityMPH,Wind Direction,Wind SpeedMPH,Gust SpeedMPH,PrecipitationIn,Events,Conditions,WindDirDegrees,DateUTC
12:52 AM,51.1,48.9,92,30.04,10.0,Calm,Calm,-,N/A,,Clear,0,2013-06-15 05:52:00
1:52 AM,54.0,48.9,83,30.02,10.0,Calm,Calm,-,N/A,,Partly Cloudy,0,2013-06-15 06:52:00
2:52 AM,53.1,50.0,89,30.02,10.0,Calm,Calm,-,N/A,,Clear,0,2013-06-15 07:52:00
3:52 AM,55.0,51.1,86,30.03,10.0,Calm,Calm,-,N/A,,Partly Cloudy,0,2013-06-15 08:52:00
4:52 AM,57.0,52.0,83,30.05,10.0,Calm,Calm,-,0.00,Rain,Light Rain,0,2013-06-15 09:52:00
5:52 AM,57.0,55.0,93,30.04,7.0,Calm,Calm,-,0.02,,Overcast,0,2013-06-15 10:52:00
6:52 AM,59.0,55.9,90,30.02,7.0,Calm,Calm,-,0.00,,Partly Cloudy,0,2013-06-15 11:52:00
7:52 AM,59.0,57.0,93,30.00,5.0,East,5.8,-,N/A,,Overcast,80,2013-06-15 12:52:00
8:52 AM,59.0,54.0,83,29.99,10.0,Calm,Calm,-,0.00,,Mostly Cloudy,0,2013-06-15 13:52:00
9:52 AM,60.1,57.0,90,29.98,-9999.0,North,-9999.0,-,0.03,,Unknown,0,2013-06-15 14:52:00
10:52 AM,64.0,61.0,90,29.97,6.0,SSW,9.2,-,0.02,Rain,Light Rain,210,2013-06-15 15:52:00
11:52 AM,69.1,62.1,78,29.98,8.0,SW,3.5,-,0.00,,Unknown,220,2013-06-15 16:52:00
12:52 PM,72.0,64.9,78,29.98,9.0,Variable,3.5,-,N/A,,Scattered Clouds,0,2013-06-15 17:52:00
1:52 PM,64.0,59.0,84,29.98,7.0,NE,9.2,-,N/A,,Scattered Clouds,50,2013-06-15 18:52:00
2:52 PM,66.9,62.1,84,29.98,7.0,East,8.1,-,N/A,,Clear,90,2013-06-15 19:52:00
3:52 PM,66.0,61.0,84,29.95,5.0,ESE,8.1,-,N/A,,Haze,110,2013-06-15 20:52:00
4:52 PM,69.1,62.1,78,29.91,8.0,SE,10.4,-,N/A,,Clear,140,2013-06-15 21:52:00
5:52 PM,69.1,61.0,75,29.87,10.0,SE,12.7,-,N/A,,Clear,140,2013-06-15 22:52:00
6:52 PM,68.0,60.1,76,29.86,10.0,SSE,11.5,-,N/A,,Clear,150,2013-06-15 23:52:00
7:52 PM,66.9,61.0,81,29.84,10.0,SE,6.9,-,N/A,,Clear,130,2013-06-16 00:52:00
8:52 PM,66.9,62.1,84,29.83,10.0,SSE,4.6,-,N/A,,Clear,160,2013-06-16 01:52:00
9:39 PM,69.8,62.6,78,29.89,10.0,Variable,4.6,-,N/A,Thunderstorm,Mostly Cloudy,0,2013-06-16 02:39:00
9:52 PM,70.0,66.0,87,29.86,3.0,SSW,10.4,-,0.05,Rain-Thunderstorm,Heavy Thunderstorms and Rain,210,2013-06-16 02:52:00
10:21 PM,71.6,68.0,88,29.87,10.0,SW,9.2,-,0.01,Rain,Light Rain,220,2013-06-16 03:21:00
10:52 PM,72.0,68.0,87,29.83,10.0,Variable,6.9,-,0.01,,Partly Cloudy,0,2013-06-16 03:52:00
11:52 PM,73.0,68.0,84,29.81,10.0,SW,9.2,21.9,N/A,,Clear,230,2013-06-16 04:52:00